M I D A S
Marine Information and Data Acquisition System
Tripno 977 of the Zeeleeuw from 2005-10-24 06:41:04 to 2005-10-24 14:23:06
Back to CruiseResearch ActivitiesStationsMapUnderway DataData graphs

EquipmentUnitsComments
TimeDGPSUTC
LatitudeDGPSDM.mWGS84
LongitudeDGPSDM.mWGS84
SpeedMeteo Stationm/sRelative wind speed
DirectionMeteo StationdegRelative wind direction
TemperatureMeteo Stationdeg CelciusAir temperature
PressureMeteo StationPaAtmospheric pressure
HumidityMeteo Station%Relative humidity
Missing or incorrect values are displayed as -999
Metereological data collected by the RV Zeeleeuw from 2005-10-24 06:42:02 to 2005-10-24 14:33:23
                                                                                    Next 1000 lines
Time Latitude Longitude Speed Direction Temperature Pressure Humidity
2005-10-24 06:42:11 51°13.601 2°56.094 -999 74 11.2 101170 99
2005-10-24 06:42:17 51°13.602 2°56.091 -999 71 11.2 101170 99
2005-10-24 06:42:22 51°13.603 2°56.087 -999 77 11.3 101170 99
2005-10-24 06:42:27 51°13.604 2°56.082 -999 77 11.3 101170 99
2005-10-24 06:42:33 51°13.605 2°56.077 -999 91 11.3 101170 99
2005-10-24 06:42:37 51°13.607 2°56.072 -999 95 11.3 101170 99
2005-10-24 06:42:43 51°13.608 2°56.066 -999 73 11.3 101170 99
2005-10-24 06:42:48 51°13.61 2°56.06 -999 65 11.3 101170 99
2005-10-24 06:42:53 51°13.612 2°56.054 -999 72 11.3 101170 99
2005-10-24 06:42:58 51°13.613 2°56.048 -999 78 11.3 101170 99
2005-10-24 06:43:02 51°13.614 2°56.043 -999 71 11.3 101180 99
2005-10-24 06:43:07 51°13.616 2°56.036 -999 75 11.3 101180 99
2005-10-24 06:43:13 51°13.618 2°56.028 -999 55 11.3 101170 99
2005-10-24 06:43:17 51°13.62 2°56.022 -999 81 11.3 101170 99
2005-10-24 06:43:23 51°13.622 2°56.013 -999 96 11.3 101170 99
2005-10-24 06:43:27 51°13.623 2°56.007 -999 64 11.3 101170 99
2005-10-24 06:43:33 51°13.626 2°55.998 -999 79 11.3 101170 99
2005-10-24 06:43:38 51°13.628 2°55.99 -999 79 11.3 101170 99
2005-10-24 06:43:43 51°13.63 2°55.982 -999 82 11.3 101170 99
2005-10-24 06:43:47 51°13.632 2°55.976 -999 69 11.3 101170 99
2005-10-24 06:43:53 51°13.635 2°55.966 -999 80 11.3 101170 99
2005-10-24 06:43:58 51°13.637 2°55.957 -999 103 11.3 101170 99
2005-10-24 06:44:03 51°13.64 2°55.948 -999 69 11.3 101170 99
2005-10-24 06:44:07 51°13.643 2°55.941 -999 74 11.3 101170 99
2005-10-24 06:44:13 51°13.647 2°55.93 -999 73 11.3 101170 99
2005-10-24 06:44:18 51°13.65 2°55.921 -999 79 11.3 101170 99
2005-10-24 06:44:23 51°13.653 2°55.911 -999 67 11.3 101170 99
2005-10-24 06:44:28 51°13.656 2°55.902 -999 60 11.3 101170 99
2005-10-24 06:44:33 51°13.659 2°55.893 -999 66 11.3 101170 99
2005-10-24 06:44:37 51°13.662 2°55.885 -999 67 11.3 101170 99
2005-10-24 06:44:43 51°13.665 2°55.874 -999 71 11.3 101170 99
2005-10-24 06:44:47 51°13.667 2°55.867 -999 79 11.3 101170 99
2005-10-24 06:44:53 51°13.67 2°55.856 -999 85 11.3 101170 99
2005-10-24 06:44:57 51°13.672 2°55.849 -999 102 11.3 101170 99
2005-10-24 06:45:03 51°13.674 2°55.839 -999 93 11.3 101170 99
2005-10-24 06:45:07 51°13.676 2°55.832 -999 99 11.3 101170 99
2005-10-24 06:45:13 51°13.678 2°55.821 -999 91 11.3 101170 99
2005-10-24 06:45:17 51°13.679 2°55.815 -999 98 11.3 101170 99
2005-10-24 06:45:23 51°13.68 2°55.804 -999 102 11.3 101170 99
2005-10-24 06:45:28 51°13.681 2°55.796 -999 126 11.3 101170 99
2005-10-24 06:45:33 51°13.682 2°55.788 -999 106 11.3 101170 99
2005-10-24 06:45:38 51°13.682 2°55.78 -999 119 11.3 101170 99
2005-10-24 06:45:43 51°13.682 2°55.772 -999 133 11.3 101170 99
2005-10-24 06:45:47 51°13.683 2°55.767 -999 120 11.3 101170 99
2005-10-24 06:45:53 51°13.683 2°55.761 -999 119 11.3 101170 99
2005-10-24 06:45:57 51°13.683 2°55.758 -999 120 11.3 101170 99
2005-10-24 06:46:02 51°13.683 2°55.755 -999 117 11.3 101170 99
2005-10-24 06:46:07 51°13.683 2°55.753 -999 119 11.3 101170 99
2005-10-24 06:46:12 51°13.683 2°55.752 -999 122 11.3 101170 99
2005-10-24 06:46:17 51°13.684 2°55.752 -999 125 11.3 101170 99
2005-10-24 06:46:22 51°13.684 2°55.753 -999 126 11.3 101160 99
2005-10-24 06:46:27 51°13.686 2°55.753 -999 155 11.3 101160 99
2005-10-24 06:46:32 51°13.687 2°55.755 -999 146 11.3 101160 99
2005-10-24 06:46:37 51°13.689 2°55.756 -999 140 11.3 101160 99
2005-10-24 06:46:42 51°13.692 2°55.758 -999 128 11.3 101160 99
2005-10-24 06:46:47 51°13.694 2°55.759 -999 132 11.3 101160 99
2005-10-24 06:46:52 51°13.697 2°55.761 -999 139 11.3 101170 99
2005-10-24 06:46:57 51°13.7 2°55.762 -999 167 11.3 101170 99
2005-10-24 06:47:02 51°13.703 2°55.763 -999 166 11.3 101170 99
2005-10-24 06:47:07 51°13.707 2°55.763 -999 177 11.3 101170 99
2005-10-24 06:47:12 51°13.71 2°55.763 -999 202 11.3 101170 99
2005-10-24 06:47:17 51°13.715 2°55.761 -999 220 11.3 101170 99
2005-10-24 06:47:22 51°13.719 2°55.76 -999 209 11.3 101170 99
2005-10-24 06:47:27 51°13.724 2°55.757 -999 231 11.3 101170 99
2005-10-24 06:47:32 51°13.729 2°55.752 -999 233 11.3 101180 99
2005-10-24 06:47:37 51°13.734 2°55.746 -999 223 11.3 101180 99
2005-10-24 06:47:42 51°13.739 2°55.738 -999 215 11.3 101180 99
2005-10-24 06:47:47 51°13.746 2°55.73 -999 242 11.3 101180 99
2005-10-24 06:47:52 51°13.752 2°55.722 -999 241 11.3 101180 99
2005-10-24 06:47:57 51°13.759 2°55.712 -999 255 11.3 101180 99
2005-10-24 06:48:02 51°13.767 2°55.702 -999 252 11.3 101180 99
2005-10-24 06:48:07 51°13.775 2°55.692 -999 264 11.3 101180 99
2005-10-24 06:48:12 51°13.783 2°55.681 -999 270 11.3 101180 99
2005-10-24 06:48:17 51°13.792 2°55.671 -999 281 11.3 101180 99
2005-10-24 06:48:22 51°13.801 2°55.66 -999 264 11.3 101180 99
2005-10-24 06:48:27 51°13.811 2°55.65 -999 260 11.3 101180 99
2005-10-24 06:48:31 51°13.819 2°55.642 -999 247 11.3 101190 99
2005-10-24 06:48:37 51°13.831 2°55.63 -999 277 11.3 101190 99
2005-10-24 06:48:42 51°13.842 2°55.62 -999 265 11.3 101180 99
2005-10-24 06:48:47 51°13.854 2°55.612 -999 250 11.3 101180 99
2005-10-24 06:48:52 51°13.865 2°55.603 -999 246 11.3 101180 99
2005-10-24 06:48:57 51°13.876 2°55.594 -999 256 11.3 101180 99
2005-10-24 06:49:02 51°13.889 2°55.586 -999 244 11.3 101180 99
2005-10-24 06:49:07 51°13.901 2°55.578 -999 255 11.3 101180 99
2005-10-24 06:49:11 51°13.91 2°55.571 -999 253 11.3 101180 99
2005-10-24 06:49:17 51°13.925 2°55.56 -999 238 11.3 101180 99
2005-10-24 06:49:22 51°13.937 2°55.552 -999 312 11.3 101180 99
2005-10-24 06:49:27 51°13.95 2°55.544 -999 42 11.3 101180 99
2005-10-24 06:49:32 51°13.962 2°55.535 -999 281 11.3 101180 99
2005-10-24 06:49:37 51°13.974 2°55.526 -999 282 11.3 101180 99
2005-10-24 06:49:42 51°13.986 2°55.517 -999 279 11.3 101180 99
2005-10-24 06:49:47 51°13.999 2°55.509 -999 283 11.3 101180 99
2005-10-24 06:49:51 51°14.009 2°55.501 -999 289 11.3 101180 99
2005-10-24 06:49:57 51°14.024 2°55.491 -999 266 11.3 101180 99
2005-10-24 06:50:02 51°14.036 2°55.483 -999 261 11.3 101180 99
2005-10-24 06:50:07 51°14.049 2°55.474 -999 176 11.3 101180 99
2005-10-24 06:50:12 51°14.061 2°55.465 -999 206 11.3 101180 99
2005-10-24 06:50:17 51°14.074 2°55.457 -999 202 11.3 101180 99
2005-10-24 06:50:22 51°14.087 2°55.447 -999 215 11.3 101180 99
2005-10-24 06:50:27 51°14.1 2°55.438 -999 235 11.3 101180 99
2005-10-24 06:50:32 51°14.113 2°55.429 -999 264 11.3 101170 99
2005-10-24 06:50:37 51°14.126 2°55.419 -999 309 11.3 101170 99
2005-10-24 06:50:42 51°14.139 2°55.409 -999 269 11.3 101170 99
2005-10-24 06:50:47 51°14.153 2°55.399 -999 286 11.3 101170 99
2005-10-24 06:50:51 51°14.163 2°55.39 -999 276 11.3 101170 99
2005-10-24 06:50:57 51°14.179 2°55.375 -999 259 11.3 101170 99
2005-10-24 06:51:02 51°14.191 2°55.362 -999 265 11.3 101170 99
2005-10-24 06:51:07 51°14.204 2°55.347 -999 288 11.3 101170 99
2005-10-24 06:51:12 51°14.216 2°55.332 -999 286 11.3 101170 99
2005-10-24 06:51:17 51°14.228 2°55.315 -999 264 11.3 101170 99
2005-10-24 06:51:22 51°14.239 2°55.298 -999 271 11.3 101170 99
2005-10-24 06:51:27 51°14.25 2°55.279 -999 290 11.3 101170 99
2005-10-24 06:51:32 51°14.261 2°55.261 -999 294 11.3 101180 99
2005-10-24 06:51:37 51°14.272 2°55.241 -999 323 11.3 101180 99
2005-10-24 06:51:42 51°14.282 2°55.221 -999 293 11.3 101180 99
2005-10-24 06:51:47 51°14.292 2°55.201 -999 300 11.3 101180 99
2005-10-24 06:51:52 51°14.303 2°55.181 -999 302 11.3 101180 99
2005-10-24 06:51:57 51°14.313 2°55.161 -999 300 11.3 101180 99
2005-10-24 06:52:02 51°14.323 2°55.14 -999 313 11.3 101170 100
2005-10-24 06:52:07 51°14.334 2°55.12 -999 321 11.3 101170 100
2005-10-24 06:52:12 51°14.344 2°55.1 -999 315 11.3 101160 99
2005-10-24 06:52:17 51°14.355 2°55.081 -999 315 11.3 101160 99
2005-10-24 06:52:22 51°14.367 2°55.062 -999 319 11.3 101160 100
2005-10-24 06:52:27 51°14.379 2°55.044 -999 341 11.3 101160 100
2005-10-24 06:52:32 51°14.391 2°55.027 -999 297 11.3 101160 99
2005-10-24 06:52:37 51°14.404 2°55.01 -999 277 11.3 101160 99
2005-10-24 06:52:42 51°14.415 2°54.992 -999 294 11.3 101170 100
2005-10-24 06:52:47 51°14.427 2°54.972 -999 278 11.3 101170 100
2005-10-24 06:52:52 51°14.437 2°54.953 -999 277 11.3 101160 99
2005-10-24 06:52:57 51°14.447 2°54.932 -999 301 11.3 101160 99
2005-10-24 06:53:02 51°14.457 2°54.912 -999 298 11.3 101160 99
2005-10-24 06:53:07 51°14.466 2°54.89 -999 304 11.3 101160 99
2005-10-24 06:53:12 51°14.475 2°54.868 -999 311 11.3 101160 99
2005-10-24 06:53:17 51°14.484 2°54.846 -999 287 11.3 101160 99
2005-10-24 06:53:22 51°14.493 2°54.823 -999 298 11.3 101160 100
2005-10-24 06:53:27 51°14.501 2°54.799 -999 291 11.3 101160 100
2005-10-24 06:53:31 51°14.508 2°54.781 -999 309 11.3 101160 100
2005-10-24 06:53:37 51°14.518 2°54.752 -999 289 11.3 101160 100
2005-10-24 06:53:42 51°14.526 2°54.729 -999 292 11.3 101150 100
2005-10-24 06:53:47 51°14.534 2°54.705 -999 301 11.3 101150 100
2005-10-24 06:53:51 51°14.54 2°54.686 -999 279 11.3 101150 100
2005-10-24 06:53:57 51°14.55 2°54.657 -999 285 11.3 101150 100
2005-10-24 06:54:02 51°14.558 2°54.632 -999 280 11.3 101130 100
2005-10-24 06:54:07 51°14.565 2°54.608 -999 290 11.3 101130 100
2005-10-24 06:54:12 51°14.573 2°54.583 -999 295 11.3 101150 100
2005-10-24 06:54:17 51°14.581 2°54.559 -999 267 11.3 101150 100
2005-10-24 06:54:22 51°14.588 2°54.533 -999 275 11.3 101160 100
2005-10-24 06:54:27 51°14.596 2°54.508 -999 289 11.3 101160 100
2005-10-24 06:54:32 51°14.604 2°54.483 -999 295 11.3 101150 100
2005-10-24 06:54:37 51°14.611 2°54.458 -999 304 11.3 101150 100
2005-10-24 06:54:42 51°14.62 2°54.433 -999 304 11.4 101140 100
2005-10-24 06:54:47 51°14.627 2°54.408 -999 305 11.4 101140 100
2005-10-24 06:54:52 51°14.635 2°54.383 -999 298 11.4 101150 100
2005-10-24 06:54:57 51°14.642 2°54.357 -999 286 11.4 101150 100
2005-10-24 06:55:02 51°14.649 2°54.331 -999 298 11.4 101140 100
2005-10-24 06:55:07 51°14.657 2°54.305 -999 294 11.4 101140 100
2005-10-24 06:55:11 51°14.662 2°54.284 -999 296 11.4 101140 100
2005-10-24 06:55:17 51°14.67 2°54.253 -999 297 11.4 101140 100
2005-10-24 06:55:22 51°14.677 2°54.227 -999 293 11.4 101130 100
2005-10-24 06:55:27 51°14.684 2°54.201 -999 295 11.4 101130 100
2005-10-24 06:55:32 51°14.691 2°54.175 -999 288 11.4 101140 100
2005-10-24 06:55:37 51°14.698 2°54.149 -999 285 11.4 101140 100
2005-10-24 06:55:42 51°14.706 2°54.123 -999 293 11.4 101140 100
2005-10-24 06:55:47 51°14.713 2°54.098 -999 288 11.4 101140 100
2005-10-24 06:55:52 51°14.72 2°54.072 -999 284 11.4 101140 100
2005-10-24 06:55:57 51°14.727 2°54.046 -999 301 11.4 101140 100
2005-10-24 06:56:02 51°14.734 2°54.02 -999 298 11.4 101140 100
2005-10-24 06:56:07 51°14.742 2°53.994 -999 299 11.4 101140 100
2005-10-24 06:56:11 51°14.747 2°53.974 -999 300 11.4 101140 100
2005-10-24 06:56:17 51°14.755 2°53.942 -999 284 11.4 101140 100
2005-10-24 06:56:22 51°14.761 2°53.916 -999 289 11.4 101140 100
2005-10-24 06:56:27 51°14.767 2°53.889 -999 306 11.4 101140 100
2005-10-24 06:56:32 51°14.772 2°53.863 -999 301 11.4 101140 100
2005-10-24 06:56:37 51°14.778 2°53.836 -999 294 11.4 101140 100
2005-10-24 06:56:42 51°14.783 2°53.809 -999 297 11.4 101140 100
2005-10-24 06:56:47 51°14.789 2°53.783 -999 291 11.4 101140 100
2005-10-24 06:56:52 51°14.795 2°53.756 -999 304 11.4 101130 100
2005-10-24 06:56:57 51°14.8 2°53.729 -999 297 11.4 101130 100
2005-10-24 06:57:02 51°14.806 2°53.702 -999 292 11.4 101130 100
2005-10-24 06:57:07 51°14.812 2°53.676 -999 305 11.4 101130 100
2005-10-24 06:57:12 51°14.817 2°53.649 -999 301 11.5 101140 100
2005-10-24 06:57:17 51°14.823 2°53.622 -999 299 11.5 101140 100
2005-10-24 06:57:22 51°14.828 2°53.595 -999 298 11.5 101140 100
2005-10-24 06:57:27 51°14.833 2°53.568 -999 296 11.5 101140 100
2005-10-24 06:57:32 51°14.838 2°53.54 -999 296 11.5 101140 100
2005-10-24 06:57:37 51°14.843 2°53.513 -999 293 11.5 101140 100
2005-10-24 06:57:42 51°14.848 2°53.486 -999 297 11.5 101130 100
2005-10-24 06:57:47 51°14.853 2°53.458 -999 298 11.5 101130 100
2005-10-24 06:57:51 51°14.857 2°53.436 -999 302 11.5 101130 100
2005-10-24 06:57:57 51°14.863 2°53.404 -999 294 11.5 101130 100
2005-10-24 06:58:02 51°14.868 2°53.376 -999 297 11.5 101120 100
2005-10-24 06:58:07 51°14.873 2°53.349 -999 297 11.5 101120 100
2005-10-24 06:58:11 51°14.877 2°53.327 -999 289 11.5 101140 100
2005-10-24 06:58:17 51°14.882 2°53.294 -999 299 11.5 101140 100
2005-10-24 06:58:22 51°14.887 2°53.267 -999 304 11.5 101130 100
2005-10-24 06:58:27 51°14.892 2°53.239 -999 294 11.5 101130 100
2005-10-24 06:58:32 51°14.896 2°53.212 -999 305 11.6 101130 100
2005-10-24 06:58:37 51°14.901 2°53.184 -999 291 11.6 101130 100
2005-10-24 06:58:41 51°14.904 2°53.162 -999 295 11.6 101140 100
2005-10-24 06:58:47 51°14.91 2°53.129 -999 301 11.6 101140 100
2005-10-24 06:58:52 51°14.914 2°53.102 -999 299 11.6 101130 100
2005-10-24 06:58:57 51°14.918 2°53.074 -999 306 11.6 101130 100
2005-10-24 06:59:02 51°14.922 2°53.046 -999 298 11.6 101130 100
2005-10-24 06:59:07 51°14.925 2°53.018 -999 308 11.6 101130 100
2005-10-24 06:59:12 51°14.928 2°52.991 -999 304 11.6 101130 100
2005-10-24 06:59:17 51°14.931 2°52.962 -999 308 11.6 101130 100
2005-10-24 06:59:22 51°14.935 2°52.934 -999 306 11.6 101130 100
2005-10-24 06:59:27 51°14.937 2°52.906 -999 308 11.6 101130 100
2005-10-24 06:59:32 51°14.941 2°52.878 -999 308 11.6 101130 100
2005-10-24 06:59:37 51°14.943 2°52.85 -999 303 11.6 101130 100
2005-10-24 06:59:42 51°14.947 2°52.822 -999 304 11.6 101120 100
2005-10-24 06:59:47 51°14.95 2°52.794 -999 302 11.6 101120 100
2005-10-24 06:59:52 51°14.953 2°52.766 -999 304 11.6 101120 100
2005-10-24 06:59:57 51°14.956 2°52.738 -999 307 11.6 101120 100
2005-10-24 07:00:02 51°14.958 2°52.71 -999 302 11.6 101120 100
2005-10-24 07:00:07 51°14.961 2°52.681 -999 307 11.6 101120 100
2005-10-24 07:00:12 51°14.963 2°52.653 -999 303 11.6 101130 100
2005-10-24 07:00:17 51°14.964 2°52.625 -999 310 11.6 101130 100
2005-10-24 07:00:22 51°14.965 2°52.596 -999 306 11.6 101120 100
2005-10-24 07:00:27 51°14.966 2°52.568 -999 309 11.6 101120 100
2005-10-24 07:00:32 51°14.965 2°52.54 -999 310 11.6 101130 100
2005-10-24 07:00:37 51°14.964 2°52.512 -999 307 11.6 101130 100
2005-10-24 07:00:42 51°14.963 2°52.485 -999 310 11.6 101130 100
2005-10-24 07:00:47 51°14.962 2°52.457 -999 310 11.6 101130 100
2005-10-24 07:00:52 51°14.961 2°52.428 -999 313 11.7 101110 100
2005-10-24 07:00:57 51°14.96 2°52.4 -999 312 11.7 101110 100
2005-10-24 07:01:02 51°14.96 2°52.372 -999 314 11.7 101110 100
2005-10-24 07:01:07 51°14.96 2°52.344 -999 311 11.7 101110 100
2005-10-24 07:01:12 51°14.96 2°52.315 -999 310 11.7 101110 100
2005-10-24 07:01:17 51°14.96 2°52.287 -999 308 11.7 101110 100
2005-10-24 07:01:22 51°14.96 2°52.259 -999 306 11.7 101130 100
2005-10-24 07:01:27 51°14.961 2°52.231 -999 305 11.7 101130 100
2005-10-24 07:01:32 51°14.961 2°52.202 -999 304 11.7 101100 100
2005-10-24 07:01:37 51°14.961 2°52.174 -999 312 11.7 101100 100
2005-10-24 07:01:42 51°14.961 2°52.146 -999 308 11.7 101100 100
2005-10-24 07:01:47 51°14.961 2°52.117 -999 314 11.7 101100 100
2005-10-24 07:01:52 51°14.961 2°52.089 -999 313 11.7 101110 100
2005-10-24 07:01:57 51°14.961 2°52.061 -999 310 11.7 101110 100
2005-10-24 07:02:02 51°14.962 2°52.032 -999 307 11.7 101110 100
2005-10-24 07:02:07 51°14.961 2°52.005 -999 305 11.7 101110 100
2005-10-24 07:02:12 51°14.962 2°51.977 -999 303 11.7 101100 100
2005-10-24 07:02:17 51°14.962 2°51.948 -999 303 11.7 101100 100
2005-10-24 07:02:22 51°14.962 2°51.92 -999 310 11.7 101100 100
2005-10-24 07:02:27 51°14.962 2°51.892 -999 303 11.7 101100 100
2005-10-24 07:02:32 51°14.963 2°51.864 -999 306 11.7 101110 100
2005-10-24 07:02:37 51°14.963 2°51.836 -999 311 11.7 101110 100
2005-10-24 07:02:42 51°14.963 2°51.807 -999 313 11.7 101100 100
2005-10-24 07:02:47 51°14.963 2°51.779 -999 310 11.7 101100 100
2005-10-24 07:02:52 51°14.964 2°51.751 -999 309 11.7 101120 100
2005-10-24 07:02:57 51°14.964 2°51.723 -999 305 11.7 101120 100
2005-10-24 07:03:02 51°14.964 2°51.695 -999 304 11.7 101110 100
2005-10-24 07:03:07 51°14.964 2°51.666 -999 232 11.7 101110 100
2005-10-24 07:03:11 51°14.964 2°51.644 -999 311 11.7 101110 100
2005-10-24 07:03:17 51°14.965 2°51.61 -999 305 11.7 101110 100
2005-10-24 07:03:22 51°14.965 2°51.582 -999 306 11.8 101100 100
2005-10-24 07:03:27 51°14.966 2°51.554 -999 307 11.8 101100 100
2005-10-24 07:03:32 51°14.966 2°51.526 -999 305 11.8 101110 100
2005-10-24 07:03:37 51°14.966 2°51.498 -999 305 11.8 101110 100
2005-10-24 07:03:42 51°14.967 2°51.47 -999 307 11.8 101120 100
2005-10-24 07:03:47 51°14.967 2°51.442 -999 306 11.8 101120 100
2005-10-24 07:03:52 51°14.967 2°51.414 -999 310 11.8 101110 100
2005-10-24 07:03:57 51°14.966 2°51.386 -999 311 11.8 101110 100
2005-10-24 07:04:02 51°14.964 2°51.358 -999 307 11.8 101120 100
2005-10-24 07:04:07 51°14.962 2°51.33 -999 312 11.8 101120 100
2005-10-24 07:04:12 51°14.96 2°51.303 -999 310 11.8 101110 100
2005-10-24 07:04:17 51°14.958 2°51.275 -999 314 11.8 101110 100
2005-10-24 07:04:22 51°14.956 2°51.247 -999 313 11.8 101090 100
2005-10-24 07:04:27 51°14.953 2°51.22 -999 306 11.8 101090 100
2005-10-24 07:04:32 51°14.951 2°51.192 -999 312 11.8 101100 100
2005-10-24 07:04:37 51°14.947 2°51.165 -999 316 11.8 101100 100
2005-10-24 07:04:42 51°14.944 2°51.138 -999 315 11.8 101100 100
2005-10-24 07:04:47 51°14.941 2°51.11 -999 228 11.8 101100 100
2005-10-24 07:04:52 51°14.938 2°51.083 -999 314 11.8 101100 100
2005-10-24 07:04:57 51°14.935 2°51.055 -999 315 11.8 101100 100
2005-10-24 07:05:02 51°14.931 2°51.028 -999 234 11.8 101090 100
2005-10-24 07:05:07 51°14.929 2°51.001 -999 311 11.8 101090 100
2005-10-24 07:05:12 51°14.925 2°50.973 -999 231 11.8 101090 100
2005-10-24 07:05:17 51°14.921 2°50.946 -999 315 11.8 101090 100
2005-10-24 07:05:22 51°14.918 2°50.919 -999 227 11.8 101080 100
2005-10-24 07:05:27 51°14.914 2°50.892 -999 43 11.8 101080 100
2005-10-24 07:05:32 51°14.909 2°50.865 -999 320 11.8 101090 100
2005-10-24 07:05:37 51°14.905 2°50.838 -999 227 11.8 101090 100
2005-10-24 07:05:42 51°14.901 2°50.811 -999 314 11.8 101110 100
2005-10-24 07:05:47 51°14.896 2°50.785 -999 315 11.8 101110 100
2005-10-24 07:05:52 51°14.892 2°50.758 -999 318 11.8 101080 100
2005-10-24 07:05:57 51°14.887 2°50.731 -999 320 11.8 101080 100
2005-10-24 07:06:02 51°14.883 2°50.704 -999 320 11.8 101090 100
2005-10-24 07:06:07 51°14.878 2°50.678 -999 227 11.8 101090 100
2005-10-24 07:06:12 51°14.874 2°50.651 -999 228 11.8 101080 100
2005-10-24 07:06:17 51°14.868 2°50.625 -999 230 11.8 101080 100
2005-10-24 07:06:22 51°14.864 2°50.597 -999 41 11.7 101100 100
2005-10-24 07:06:27 51°14.859 2°50.571 -999 314 11.7 101100 100
2005-10-24 07:06:32 51°14.854 2°50.544 -999 229 11.7 101090 100
2005-10-24 07:06:37 51°14.849 2°50.518 -999 318 11.7 101090 100
2005-10-24 07:06:42 51°14.844 2°50.491 -999 231 11.8 101080 100
2005-10-24 07:06:47 51°14.839 2°50.464 -999 229 11.8 101080 100
2005-10-24 07:06:51 51°14.836 2°50.443 -999 227 11.8 101080 100
2005-10-24 07:06:57 51°14.83 2°50.41 -999 314 11.8 101080 100
2005-10-24 07:07:02 51°14.826 2°50.384 -999 42 11.8 101080 100
2005-10-24 07:07:07 51°14.821 2°50.357 -999 309 11.8 101080 100
2005-10-24 07:07:11 51°14.818 2°50.335 -999 314 11.8 101080 100
2005-10-24 07:07:17 51°14.813 2°50.302 -999 314 11.8 101080 100
2005-10-24 07:07:22 51°14.809 2°50.275 -999 312 11.8 101080 100
2005-10-24 07:07:27 51°14.805 2°50.248 -999 229 11.8 101080 100
2005-10-24 07:07:31 51°14.802 2°50.226 -999 316 11.8 101080 100
2005-10-24 07:07:37 51°14.796 2°50.194 -999 310 11.8 101080 100
2005-10-24 07:07:42 51°14.792 2°50.167 -999 308 11.8 101080 100
2005-10-24 07:07:47 51°14.788 2°50.14 -999 311 11.8 101080 100
2005-10-24 07:07:52 51°14.784 2°50.113 -999 313 11.8 101070 100
2005-10-24 07:07:57 51°14.78 2°50.086 -999 311 11.8 101070 100
2005-10-24 07:08:02 51°14.776 2°50.059 -999 307 11.8 101080 100
2005-10-24 07:08:07 51°14.772 2°50.032 -999 43 11.8 101080 100
2005-10-24 07:08:12 51°14.768 2°50.005 -999 228 11.8 101070 100
2005-10-24 07:08:17 51°14.763 2°49.978 -999 312 11.8 101070 100
2005-10-24 07:08:22 51°14.759 2°49.951 -999 317 11.8 101080 100
2005-10-24 07:08:27 51°14.755 2°49.924 -999 311 11.8 101080 100
2005-10-24 07:08:32 51°14.751 2°49.897 -999 228 11.8 101080 100
2005-10-24 07:08:37 51°14.747 2°49.87 -999 232 11.8 101080 100
2005-10-24 07:08:42 51°14.743 2°49.842 -999 228 11.9 101080 100
2005-10-24 07:08:47 51°14.738 2°49.816 -999 316 11.9 101080 100
2005-10-24 07:08:51 51°14.735 2°49.794 -999 229 11.9 101080 100
2005-10-24 07:08:57 51°14.73 2°49.762 -999 315 11.9 101080 100
2005-10-24 07:09:02 51°14.726 2°49.735 -999 319 11.9 101090 100
2005-10-24 07:09:07 51°14.721 2°49.708 -999 319 11.9 101090 100
2005-10-24 07:09:11 51°14.718 2°49.686 -999 318 11.9 101070 100
2005-10-24 07:09:17 51°14.712 2°49.654 -999 317 11.9 101070 100
2005-10-24 07:09:22 51°14.707 2°49.628 -999 41 11.9 101080 100
2005-10-24 07:09:27 51°14.702 2°49.602 -999 319 11.9 101080 100
2005-10-24 07:09:32 51°14.697 2°49.575 -999 322 11.9 101080 100
2005-10-24 07:09:37 51°14.691 2°49.549 -999 318 11.9 101080 100
2005-10-24 07:09:42 51°14.685 2°49.523 -999 227 11.9 101080 100
2005-10-24 07:09:47 51°14.68 2°49.496 -999 320 11.9 101080 100
2005-10-24 07:09:52 51°14.674 2°49.471 -999 325 11.9 101090 100
2005-10-24 07:09:57 51°14.669 2°49.445 -999 323 11.9 101090 100
2005-10-24 07:10:02 51°14.662 2°49.419 -999 323 11.9 101080 100
2005-10-24 07:10:07 51°14.658 2°49.392 -999 326 11.9 101080 100
2005-10-24 07:10:12 51°14.651 2°49.367 -999 323 12 101080 100
2005-10-24 07:10:17 51°14.646 2°49.34 -999 320 12 101080 100
2005-10-24 07:10:22 51°14.64 2°49.314 -999 323 12 101090 100
2005-10-24 07:10:27 51°14.634 2°49.288 -999 323 12 101090 100
2005-10-24 07:10:32 51°14.628 2°49.262 -999 328 11.9 101060 100
2005-10-24 07:10:37 51°14.623 2°49.236 -999 324 11.9 101060 100
2005-10-24 07:10:42 51°14.617 2°49.21 -999 324 11.9 101090 100
2005-10-24 07:10:47 51°14.611 2°49.184 -999 321 11.9 101090 100
2005-10-24 07:10:52 51°14.605 2°49.158 -999 322 11.9 101090 100
2005-10-24 07:10:57 51°14.6 2°49.132 -999 320 11.9 101090 100
2005-10-24 07:11:02 51°14.594 2°49.105 -999 318 11.9 101090 100
2005-10-24 07:11:07 51°14.589 2°49.079 -999 327 11.9 101090 100
2005-10-24 07:11:12 51°14.583 2°49.053 -999 326 11.9 101090 100
2005-10-24 07:11:17 51°14.577 2°49.027 -999 319 11.9 101090 100
2005-10-24 07:11:22 51°14.572 2°49.001 -999 321 12 101100 100
2005-10-24 07:11:27 51°14.566 2°48.975 -999 318 12 101100 100
2005-10-24 07:11:31 51°14.562 2°48.954 -999 316 11.9 101080 100
2005-10-24 07:11:37 51°14.555 2°48.924 -999 322 11.9 101080 100
2005-10-24 07:11:42 51°14.548 2°48.897 -999 324 11.9 101070 100
2005-10-24 07:11:47 51°14.543 2°48.871 -999 327 11.9 101070 100
2005-10-24 07:11:51 51°14.538 2°48.851 -999 319 11.9 101090 100
2005-10-24 07:11:57 51°14.531 2°48.82 -999 321 11.9 101090 100
2005-10-24 07:12:02 51°14.525 2°48.794 -999 319 11.9 101090 100
2005-10-24 07:12:07 51°14.519 2°48.768 -999 321 11.9 101090 100
2005-10-24 07:12:12 51°14.513 2°48.742 -999 326 12 101080 100
2005-10-24 07:12:17 51°14.507 2°48.716 -999 324 12 101080 100
2005-10-24 07:12:22 51°14.501 2°48.69 -999 322 12 101090 100
2005-10-24 07:12:27 51°14.495 2°48.664 -999 321 12 101090 100
2005-10-24 07:12:32 51°14.489 2°48.639 -999 317 12 101090 100
2005-10-24 07:12:37 51°14.483 2°48.612 -999 320 12 101090 100
2005-10-24 07:12:42 51°14.477 2°48.587 -999 318 12 101080 100
2005-10-24 07:12:47 51°14.471 2°48.561 -999 322 12 101080 100
2005-10-24 07:12:52 51°14.465 2°48.535 -999 321 12 101070 100
2005-10-24 07:12:57 51°14.459 2°48.509 -999 324 12 101070 100
2005-10-24 07:13:02 51°14.453 2°48.483 -999 322 12 101080 100
2005-10-24 07:13:07 51°14.447 2°48.457 -999 326 12 101080 100
2005-10-24 07:13:12 51°14.441 2°48.431 -999 329 12.1 101090 100
2005-10-24 07:13:17 51°14.435 2°48.405 -999 323 12.1 101090 100
2005-10-24 07:13:22 51°14.43 2°48.379 -999 322 12 101070 100
2005-10-24 07:13:27 51°14.424 2°48.353 -999 320 12 101070 100
2005-10-24 07:13:32 51°14.418 2°48.327 -999 323 12 101080 100
2005-10-24 07:13:37 51°14.412 2°48.302 -999 317 12 101080 100
2005-10-24 07:13:42 51°14.406 2°48.275 -999 322 12 101070 100
2005-10-24 07:13:47 51°14.4 2°48.25 -999 322 12 101070 100
2005-10-24 07:13:52 51°14.394 2°48.224 -999 323 12 101060 100
2005-10-24 07:13:57 51°14.388 2°48.198 -999 39 12 101060 100
2005-10-24 07:14:02 51°14.382 2°48.172 -999 320 12 101080 100
2005-10-24 07:14:07 51°14.376 2°48.146 -999 318 12 101080 100
2005-10-24 07:14:11 51°14.371 2°48.126 -999 319 12 101070 100
2005-10-24 07:14:17 51°14.364 2°48.095 -999 319 12 101070 100
2005-10-24 07:14:22 51°14.358 2°48.069 -999 319 12 101050 100
2005-10-24 07:14:27 51°14.352 2°48.042 -999 315 12 101050 100
2005-10-24 07:14:31 51°14.347 2°48.022 -999 320 12 101070 100
2005-10-24 07:14:37 51°14.34 2°47.991 -999 318 12 101070 100
2005-10-24 07:14:42 51°14.334 2°47.964 -999 325 12 101080 100
2005-10-24 07:14:47 51°14.328 2°47.938 -999 321 12 101080 100
2005-10-24 07:14:52 51°14.322 2°47.912 -999 321 12 101060 100
2005-10-24 07:14:57 51°14.317 2°47.886 -999 316 12 101060 100
2005-10-24 07:15:02 51°14.311 2°47.86 -999 315 12 101080 100
2005-10-24 07:15:07 51°14.305 2°47.834 -999 321 12 101080 100
2005-10-24 07:15:11 51°14.301 2°47.813 -999 318 12 101070 100
2005-10-24 07:15:17 51°14.294 2°47.783 -999 319 12 101070 100
2005-10-24 07:15:22 51°14.288 2°47.757 -999 319 12 101060 100
2005-10-24 07:15:27 51°14.282 2°47.73 -999 318 12 101060 100
2005-10-24 07:15:32 51°14.276 2°47.704 -999 320 12 101070 100
2005-10-24 07:15:37 51°14.271 2°47.678 -999 322 12 101070 100
2005-10-24 07:15:42 51°14.265 2°47.652 -999 320 12 101060 100
2005-10-24 07:15:47 51°14.259 2°47.626 -999 318 12 101060 100
2005-10-24 07:15:52 51°14.253 2°47.6 -999 317 12 101060 100
2005-10-24 07:15:57 51°14.248 2°47.573 -999 41 12 101060 100
2005-10-24 07:16:02 51°14.244 2°47.547 -999 315 12 101060 100
2005-10-24 07:16:07 51°14.239 2°47.52 -999 39 12 101060 100
2005-10-24 07:16:11 51°14.237 2°47.498 -999 228 12 101070 100
2005-10-24 07:16:17 51°14.232 2°47.465 -999 313 12 101070 100
2005-10-24 07:16:22 51°14.229 2°47.437 -999 316 12 101060 100
2005-10-24 07:16:27 51°14.226 2°47.41 -999 313 12 101060 100
2005-10-24 07:16:32 51°14.224 2°47.382 -999 231 12 101060 100
2005-10-24 07:16:37 51°14.223 2°47.354 -999 235 12 101060 100
2005-10-24 07:16:42 51°14.222 2°47.326 -999 42 12 101060 100
2005-10-24 07:16:47 51°14.221 2°47.299 -999 309 12 101060 100
2005-10-24 07:16:52 51°14.221 2°47.271 -999 308 12 101070 100
2005-10-24 07:16:57 51°14.22 2°47.243 -999 312 12 101070 100
2005-10-24 07:17:02 51°14.22 2°47.215 -999 304 12 101060 100
2005-10-24 07:17:07 51°14.219 2°47.187 -999 309 12 101060 100
2005-10-24 07:17:12 51°14.219 2°47.159 -999 310 12 101070 100
2005-10-24 07:17:17 51°14.219 2°47.131 -999 307 12 101070 100
2005-10-24 07:17:22 51°14.218 2°47.103 -999 306 12 101080 100
2005-10-24 07:17:27 51°14.218 2°47.075 -999 313 12 101080 100
2005-10-24 07:17:32 51°14.217 2°47.047 -999 313 12 101080 100
2005-10-24 07:17:37 51°14.217 2°47.019 -999 308 12 101080 100
2005-10-24 07:17:42 51°14.217 2°46.991 -999 304 12 101070 100
2005-10-24 07:17:47 51°14.216 2°46.963 -999 307 12 101070 100
2005-10-24 07:17:52 51°14.216 2°46.935 -999 297 12.1 101080 100
2005-10-24 07:17:57 51°14.215 2°46.907 -999 299 12.1 101080 100
2005-10-24 07:18:02 51°14.216 2°46.879 -999 298 12.1 101070 100
2005-10-24 07:18:07 51°14.214 2°46.851 -999 311 12.1 101070 100
2005-10-24 07:18:12 51°14.214 2°46.823 -999 310 12 101050 100
2005-10-24 07:18:17 51°14.213 2°46.795 -999 305 12 101050 100
2005-10-24 07:18:22 51°14.212 2°46.767 -999 306 12 101050 100
2005-10-24 07:18:27 51°14.212 2°46.739 -999 308 12 101050 100
2005-10-24 07:18:32 51°14.211 2°46.711 -999 299 12 101050 100
2005-10-24 07:18:37 51°14.211 2°46.683 -999 308 12 101050 100
2005-10-24 07:18:42 51°14.211 2°46.655 -999 310 12 101060 100
2005-10-24 07:18:47 51°14.21 2°46.627 -999 309 12 101060 100
2005-10-24 07:18:52 51°14.21 2°46.599 -999 43 12.1 101060 100
2005-10-24 07:18:57 51°14.209 2°46.57 -999 311 12.1 101060 100
2005-10-24 07:19:02 51°14.208 2°46.542 -999 229 12.1 101070 100
2005-10-24 07:19:07 51°14.208 2°46.515 -999 309 12.1 101070 100
2005-10-24 07:19:12 51°14.208 2°46.486 -999 305 12.1 101070 100
2005-10-24 07:19:17 51°14.208 2°46.458 -999 306 12.1 101070 100
2005-10-24 07:19:22 51°14.207 2°46.43 -999 308 12.1 101060 100
2005-10-24 07:19:27 51°14.207 2°46.402 -999 312 12.1 101060 100
2005-10-24 07:19:32 51°14.206 2°46.374 -999 314 12.1 101060 100
2005-10-24 07:19:37 51°14.206 2°46.346 -999 315 12.1 101060 100
2005-10-24 07:19:42 51°14.205 2°46.318 -999 41 12.1 101060 100
2005-10-24 07:19:47 51°14.205 2°46.29 -999 230 12.1 101060 100
2005-10-24 07:19:52 51°14.204 2°46.262 -999 309 12.1 101060 100
2005-10-24 07:19:57 51°14.204 2°46.234 -999 312 12.1 101060 100
2005-10-24 07:20:02 51°14.204 2°46.206 -999 306 12.1 101080 100
2005-10-24 07:20:07 51°14.204 2°46.178 -999 312 12.1 101080 100
2005-10-24 07:20:12 51°14.203 2°46.15 -999 311 12.1 101060 100
2005-10-24 07:20:17 51°14.202 2°46.122 -999 230 12.1 101060 100
2005-10-24 07:20:22 51°14.202 2°46.094 -999 315 12.1 101060 100
2005-10-24 07:20:27 51°14.201 2°46.066 -999 317 12.1 101060 100
2005-10-24 07:20:32 51°14.201 2°46.038 -999 228 12.1 101060 100
2005-10-24 07:20:37 51°14.2 2°46.01 -999 42 12.1 101060 100
2005-10-24 07:20:42 51°14.2 2°45.982 -999 229 12.1 101070 100
2005-10-24 07:20:47 51°14.199 2°45.954 -999 41 12.1 101070 100
2005-10-24 07:20:52 51°14.199 2°45.926 -999 312 12.2 101070 100
2005-10-24 07:20:57 51°14.199 2°45.899 -999 39 12.2 101070 100
2005-10-24 07:21:02 51°14.199 2°45.871 -999 317 12.2 101070 100
2005-10-24 07:21:07 51°14.198 2°45.843 -999 314 12.2 101070 100
2005-10-24 07:21:11 51°14.198 2°45.821 -999 310 12.2 101060 100
2005-10-24 07:21:17 51°14.197 2°45.787 -999 228 12.2 101060 100
2005-10-24 07:21:22 51°14.197 2°45.759 -999 307 12.2 101070 100
2005-10-24 07:21:27 51°14.196 2°45.731 -999 313 12.2 101070 100
2005-10-24 07:21:31 51°14.196 2°45.709 -999 315 12.2 101070 100
2005-10-24 07:21:37 51°14.196 2°45.676 -999 312 12.2 101070 100
2005-10-24 07:21:42 51°14.195 2°45.648 -999 312 12.2 101070 100
2005-10-24 07:21:47 51°14.195 2°45.62 -999 309 12.2 101070 100
2005-10-24 07:21:52 51°14.194 2°45.592 -999 308 12.2 101070 100
2005-10-24 07:21:57 51°14.194 2°45.564 -999 312 12.2 101070 100
2005-10-24 07:22:02 51°14.193 2°45.536 -999 311 12.2 101080 100
2005-10-24 07:22:07 51°14.193 2°45.508 -999 314 12.2 101080 100
2005-10-24 07:22:12 51°14.193 2°45.48 -999 311 12.2 101060 100
2005-10-24 07:22:17 51°14.192 2°45.453 -999 312 12.2 101060 100
2005-10-24 07:22:22 51°14.191 2°45.425 -999 306 12.2 101040 100
2005-10-24 07:22:27 51°14.191 2°45.397 -999 310 12.2 101040 100
2005-10-24 07:22:32 51°14.19 2°45.369 -999 312 12.2 101060 100
2005-10-24 07:22:37 51°14.19 2°45.341 -999 308 12.2 101060 100
2005-10-24 07:22:42 51°14.189 2°45.313 -999 312 12.2 101060 100
2005-10-24 07:22:47 51°14.189 2°45.285 -999 310 12.2 101060 100
2005-10-24 07:22:52 51°14.189 2°45.257 -999 306 12.2 101060 100
2005-10-24 07:22:57 51°14.188 2°45.229 -999 307 12.2 101060 100
2005-10-24 07:23:02 51°14.188 2°45.201 -999 308 12.2 101050 100
2005-10-24 07:23:07 51°14.187 2°45.173 -999 303 12.2 101050 100
2005-10-24 07:23:11 51°14.187 2°45.151 -999 304 12.2 101060 100
2005-10-24 07:23:17 51°14.186 2°45.118 -999 306 12.2 101060 100
2005-10-24 07:23:22 51°14.185 2°45.09 -999 228 12.2 101050 100
2005-10-24 07:23:27 51°14.185 2°45.062 -999 228 12.2 101050 100
2005-10-24 07:23:32 51°14.184 2°45.034 -999 314 12.2 101050 100
2005-10-24 07:23:37 51°14.184 2°45.006 -999 311 12.2 101050 100
2005-10-24 07:23:42 51°14.183 2°44.979 -999 312 12.2 101040 100
2005-10-24 07:23:47 51°14.182 2°44.951 -999 312 12.2 101040 100
2005-10-24 07:23:52 51°14.182 2°44.923 -999 312 12.2 101060 100
2005-10-24 07:23:57 51°14.181 2°44.895 -999 314 12.2 101060 100
2005-10-24 07:24:02 51°14.181 2°44.868 -999 315 12.3 101050 100
2005-10-24 07:24:07 51°14.181 2°44.84 -999 229 12.3 101050 100
2005-10-24 07:24:12 51°14.18 2°44.813 -999 311 12.3 101060 100
2005-10-24 07:24:17 51°14.18 2°44.785 -999 314 12.3 101060 100
2005-10-24 07:24:22 51°14.178 2°44.757 -999 310 12.3 101050 100
2005-10-24 07:24:27 51°14.178 2°44.73 -999 312 12.3 101050 100
2005-10-24 07:24:32 51°14.178 2°44.702 -999 305 12.3 101040 100
2005-10-24 07:24:37 51°14.178 2°44.674 -999 302 12.3 101040 100
2005-10-24 07:24:42 51°14.179 2°44.646 -999 313 12.2 101040 100
2005-10-24 07:24:47 51°14.18 2°44.618 -999 312 12.2 101040 100
2005-10-24 07:24:52 51°14.181 2°44.59 -999 311 12.3 101070 100
2005-10-24 07:24:57 51°14.182 2°44.561 -999 313 12.3 101070 100
2005-10-24 07:25:02 51°14.184 2°44.533 -999 311 12.3 101050 100
2005-10-24 07:25:07 51°14.187 2°44.504 -999 299 12.3 101050 100
2005-10-24 07:25:12 51°14.189 2°44.476 -999 303 12.3 101060 100
2005-10-24 07:25:17 51°14.193 2°44.447 -999 297 12.3 101060 100
2005-10-24 07:25:22 51°14.195 2°44.419 -999 299 12.3 101070 100
2005-10-24 07:25:27 51°14.199 2°44.39 -999 306 12.3 101070 100
2005-10-24 07:25:32 51°14.202 2°44.362 -999 313 12.4 101070 100
2005-10-24 07:25:37 51°14.205 2°44.333 -999 304 12.4 101070 100
2005-10-24 07:25:42 51°14.208 2°44.305 -999 305 12.4 101060 100
2005-10-24 07:25:47 51°14.211 2°44.277 -999 311 12.4 101060 100
2005-10-24 07:25:52 51°14.214 2°44.248 -999 310 12.4 101070 100
2005-10-24 07:25:57 51°14.217 2°44.22 -999 309 12.4 101070 100
2005-10-24 07:26:02 51°14.219 2°44.192 -999 309 12.4 101070 100
2005-10-24 07:26:07 51°14.222 2°44.164 -999 310 12.4 101070 100
2005-10-24 07:26:12 51°14.224 2°44.136 -999 312 12.4 101050 100
2005-10-24 07:26:17 51°14.227 2°44.107 -999 311 12.4 101050 100
2005-10-24 07:26:22 51°14.229 2°44.079 -999 308 12.4 101070 100
2005-10-24 07:26:27 51°14.231 2°44.051 -999 304 12.4 101070 100
2005-10-24 07:26:32 51°14.234 2°44.023 -999 306 12.4 101060 100
2005-10-24 07:26:37 51°14.236 2°43.995 -999 304 12.4 101060 100
2005-10-24 07:26:42 51°14.238 2°43.967 -999 303 12.4 101060 100
2005-10-24 07:26:47 51°14.24 2°43.939 -999 307 12.4 101060 100
2005-10-24 07:26:52 51°14.243 2°43.911 -999 298 12.4 101040 100
2005-10-24 07:26:57 51°14.244 2°43.883 -999 311 12.4 101040 100
2005-10-24 07:27:02 51°14.247 2°43.855 -999 303 12.3 101050 100
2005-10-24 07:27:07 51°14.249 2°43.827 -999 295 12.3 101050 100
2005-10-24 07:27:11 51°14.251 2°43.804 -999 303 12.4 101050 100
2005-10-24 07:27:17 51°14.253 2°43.771 -999 305 12.4 101050 100
2005-10-24 07:27:22 51°14.256 2°43.743 -999 306 12.4 101070 100
2005-10-24 07:27:27 51°14.258 2°43.715 -999 306 12.4 101070 100
2005-10-24 07:27:32 51°14.26 2°43.687 -999 309 12.4 101050 100
2005-10-24 07:27:37 51°14.263 2°43.659 -999 299 12.4 101050 100
2005-10-24 07:27:42 51°14.265 2°43.631 -999 301 12.4 101070 100
2005-10-24 07:27:47 51°14.267 2°43.603 -999 303 12.4 101070 100
2005-10-24 07:27:52 51°14.269 2°43.575 -999 304 12.4 101050 100
2005-10-24 07:27:57 51°14.271 2°43.547 -999 312 12.4 101050 100
2005-10-24 07:28:02 51°14.273 2°43.519 -999 306 12.5 101060 100
2005-10-24 07:28:07 51°14.276 2°43.491 -999 304 12.5 101060 100
2005-10-24 07:28:12 51°14.278 2°43.463 -999 308 12.5 101050 100
2005-10-24 07:28:17 51°14.28 2°43.435 -999 307 12.5 101050 100
2005-10-24 07:28:22 51°14.283 2°43.407 -999 299 12.5 101050 100
2005-10-24 07:28:27 51°14.285 2°43.379 -999 308 12.5 101050 100
2005-10-24 07:28:32 51°14.287 2°43.351 -999 304 12.5 101060 100
2005-10-24 07:28:37 51°14.289 2°43.323 -999 291 12.5 101060 100
2005-10-24 07:28:42 51°14.292 2°43.295 -999 301 12.5 101040 100
2005-10-24 07:28:47 51°14.294 2°43.267 -999 296 12.5 101040 100
2005-10-24 07:28:52 51°14.296 2°43.239 -999 300 12.5 101060 100
2005-10-24 07:28:57 51°14.298 2°43.211 -999 301 12.5 101060 100
2005-10-24 07:29:02 51°14.3 2°43.183 -999 304 12.5 101050 100
2005-10-24 07:29:07 51°14.303 2°43.155 -999 307 12.5 101050 100
2005-10-24 07:29:12 51°14.305 2°43.127 -999 297 12.5 101040 100
2005-10-24 07:29:17 51°14.307 2°43.099 -999 304 12.5 101040 100
2005-10-24 07:29:22 51°14.31 2°43.071 -999 306 12.5 101050 100
2005-10-24 07:29:27 51°14.312 2°43.043 -999 301 12.5 101050 100
2005-10-24 07:29:32 51°14.314 2°43.015 -999 308 12.5 101050 100
2005-10-24 07:29:37 51°14.316 2°42.987 -999 308 12.5 101050 100
2005-10-24 07:29:42 51°14.318 2°42.959 -999 308 12.5 101050 100
2005-10-24 07:29:47 51°14.321 2°42.931 -999 297 12.5 101050 100
2005-10-24 07:29:51 51°14.322 2°42.909 -999 300 12.5 101040 100
2005-10-24 07:29:57 51°14.325 2°42.875 -999 308 12.5 101040 100
2005-10-24 07:30:02 51°14.327 2°42.847 -999 307 12.5 101050 100
2005-10-24 07:30:07 51°14.33 2°42.819 -999 300 12.5 101050 100
2005-10-24 07:30:12 51°14.332 2°42.791 -999 305 12.5 101040 100
2005-10-24 07:30:17 51°14.335 2°42.763 -999 303 12.5 101040 100
2005-10-24 07:30:22 51°14.337 2°42.735 -999 302 12.5 101050 100
2005-10-24 07:30:27 51°14.339 2°42.707 -999 300 12.5 101050 100
2005-10-24 07:30:32 51°14.341 2°42.679 -999 299 12.5 101030 100
2005-10-24 07:30:37 51°14.344 2°42.651 -999 308 12.5 101030 100
2005-10-24 07:30:42 51°14.346 2°42.623 -999 300 12.5 101030 100
2005-10-24 07:30:47 51°14.348 2°42.595 -999 299 12.5 101030 100
2005-10-24 07:30:51 51°14.35 2°42.573 -999 300 12.5 101040 100
2005-10-24 07:30:57 51°14.352 2°42.54 -999 311 12.5 101040 100
2005-10-24 07:31:02 51°14.355 2°42.512 -999 309 12.5 101040 100
2005-10-24 07:31:07 51°14.357 2°42.484 -999 305 12.5 101040 100
2005-10-24 07:31:12 51°14.359 2°42.456 -999 307 12.5 101030 100
2005-10-24 07:31:17 51°14.361 2°42.428 -999 299 12.5 101030 100
2005-10-24 07:31:22 51°14.363 2°42.4 -999 306 12.5 101050 100
2005-10-24 07:31:27 51°14.365 2°42.372 -999 305 12.5 101050 100
2005-10-24 07:31:32 51°14.367 2°42.344 -999 226 12.5 101040 100
2005-10-24 07:31:37 51°14.37 2°42.316 -999 310 12.5 101040 100
2005-10-24 07:31:42 51°14.372 2°42.288 -999 311 12.5 101030 100
2005-10-24 07:31:47 51°14.374 2°42.261 -999 312 12.5 101030 100
2005-10-24 07:31:51 51°14.376 2°42.239 -999 309 12.5 101040 100
2005-10-24 07:31:57 51°14.379 2°42.205 -999 308 12.5 101040 100
2005-10-24 07:32:02 51°14.381 2°42.177 -999 310 12.5 101040 100
2005-10-24 07:32:07 51°14.383 2°42.15 -999 304 12.5 101040 100
2005-10-24 07:32:12 51°14.385 2°42.122 -999 301 12.5 101020 100
2005-10-24 07:32:17 51°14.388 2°42.094 -999 306 12.5 101020 100
2005-10-24 07:32:22 51°14.39 2°42.066 -999 308 12.5 101010 100
2005-10-24 07:32:27 51°14.392 2°42.039 -999 300 12.5 101010 100
2005-10-24 07:32:32 51°14.394 2°42.011 -999 302 12.5 101020 100
2005-10-24 07:32:37 51°14.396 2°41.983 -999 228 12.5 101020 100
2005-10-24 07:32:42 51°14.399 2°41.955 -999 309 12.5 101030 100
2005-10-24 07:32:47 51°14.4 2°41.927 -999 226 12.5 101030 100
2005-10-24 07:32:52 51°14.403 2°41.9 -999 40 12.6 101050 100
2005-10-24 07:32:57 51°14.405 2°41.872 -999 312 12.6 101050 100
2005-10-24 07:33:02 51°14.407 2°41.844 -999 313 12.6 101060 100
2005-10-24 07:33:07 51°14.409 2°41.817 -999 315 12.6 101060 100
2005-10-24 07:33:12 51°14.412 2°41.789 -999 316 12.6 101050 100
2005-10-24 07:33:17 51°14.413 2°41.761 -999 315 12.6 101050 100
2005-10-24 07:33:22 51°14.416 2°41.733 -999 228 12.6 101060 100
2005-10-24 07:33:27 51°14.418 2°41.705 -999 321 12.6 101060 100
2005-10-24 07:33:32 51°14.421 2°41.678 -999 42 12.6 101050 100
2005-10-24 07:33:37 51°14.423 2°41.65 -999 313 12.6 101050 100
2005-10-24 07:33:42 51°14.425 2°41.622 -999 313 12.6 101060 100
2005-10-24 07:33:47 51°14.427 2°41.594 -999 313 12.6 101060 100
2005-10-24 07:33:52 51°14.43 2°41.567 -999 317 12.6 101040 100
2005-10-24 07:33:57 51°14.432 2°41.539 -999 231 12.6 101040 100
2005-10-24 07:34:02 51°14.434 2°41.511 -999 317 12.6 101040 100
2005-10-24 07:34:07 51°14.437 2°41.483 -999 312 12.6 101040 100
2005-10-24 07:34:11 51°14.438 2°41.461 -999 308 12.6 101030 100
2005-10-24 07:34:17 51°14.442 2°41.428 -999 312 12.6 101030 100
2005-10-24 07:34:22 51°14.444 2°41.4 -999 310 12.7 101050 100
2005-10-24 07:34:27 51°14.446 2°41.372 -999 307 12.7 101050 100
2005-10-24 07:34:32 51°14.449 2°41.345 -999 306 12.6 101040 100
2005-10-24 07:34:37 51°14.451 2°41.317 -999 300 12.6 101040 100
2005-10-24 07:34:42 51°14.454 2°41.289 -999 303 12.6 101040 100
2005-10-24 07:34:47 51°14.456 2°41.261 -999 310 12.6 101040 100
2005-10-24 07:34:52 51°14.458 2°41.233 -999 306 12.6 101040 100
2005-10-24 07:34:57 51°14.461 2°41.205 -999 304 12.6 101040 100
2005-10-24 07:35:02 51°14.463 2°41.177 -999 300 12.6 101040 100
2005-10-24 07:35:07 51°14.466 2°41.149 -999 302 12.6 101040 100
2005-10-24 07:35:12 51°14.467 2°41.121 -999 306 12.6 101040 100
2005-10-24 07:35:17 51°14.469 2°41.093 -999 302 12.6 101040 100
2005-10-24 07:35:22 51°14.471 2°41.065 -999 301 12.6 101030 100
2005-10-24 07:35:27 51°14.473 2°41.037 -999 304 12.6 101030 100
2005-10-24 07:35:32 51°14.476 2°41.009 -999 306 12.6 101020 100
2005-10-24 07:35:37 51°14.478 2°40.981 -999 306 12.6 101020 100
2005-10-24 07:35:42 51°14.48 2°40.953 -999 314 12.6 101040 100
2005-10-24 07:35:47 51°14.482 2°40.925 -999 306 12.6 101040 100
2005-10-24 07:35:52 51°14.482 2°40.896 -999 308 12.7 101050 100
2005-10-24 07:35:57 51°14.484 2°40.868 -999 306 12.7 101050 100
2005-10-24 07:36:02 51°14.485 2°40.84 -999 310 12.7 101050 100
2005-10-24 07:36:07 51°14.488 2°40.812 -999 307 12.7 101050 100
2005-10-24 07:36:12 51°14.49 2°40.784 -999 304 12.7 101030 100
2005-10-24 07:36:17 51°14.493 2°40.757 -999 300 12.7 101030 100
2005-10-24 07:36:22 51°14.496 2°40.728 -999 297 12.7 101040 100
2005-10-24 07:36:27 51°14.501 2°40.701 -999 298 12.7 101040 100
2005-10-24 07:36:32 51°14.505 2°40.673 -999 303 12.7 101030 100
2005-10-24 07:36:37 51°14.509 2°40.645 -999 300 12.7 101030 100
2005-10-24 07:36:42 51°14.513 2°40.618 -999 304 12.7 101050 100
2005-10-24 07:36:47 51°14.517 2°40.59 -999 303 12.7 101050 100
2005-10-24 07:36:52 51°14.522 2°40.563 -999 303 12.7 101070 100
2005-10-24 07:36:57 51°14.526 2°40.535 -999 300 12.7 101070 100
2005-10-24 07:37:02 51°14.531 2°40.508 -999 307 12.7 101050 100
2005-10-24 07:37:07 51°14.535 2°40.48 -999 298 12.7 101050 100
2005-10-24 07:37:12 51°14.54 2°40.453 -999 312 12.7 101050 100
2005-10-24 07:37:17 51°14.544 2°40.425 -999 303 12.7 101050 100
2005-10-24 07:37:22 51°14.549 2°40.398 -999 314 12.7 101050 100
2005-10-24 07:37:27 51°14.554 2°40.371 -999 310 12.7 101050 100
2005-10-24 07:37:32 51°14.558 2°40.343 -999 307 12.7 101060 100
2005-10-24 07:37:37 51°14.563 2°40.316 -999 306 12.7 101060 100
2005-10-24 07:37:42 51°14.568 2°40.289 -999 299 12.7 101070 100
2005-10-24 07:37:47 51°14.572 2°40.261 -999 308 12.7 101070 100
2005-10-24 07:37:52 51°14.577 2°40.233 -999 310 12.7 101070 100
2005-10-24 07:37:57 51°14.581 2°40.206 -999 303 12.7 101070 100
2005-10-24 07:38:02 51°14.586 2°40.179 -999 299 12.7 101060 100
2005-10-24 07:38:07 51°14.59 2°40.151 -999 303 12.7 101060 100
2005-10-24 07:38:12 51°14.595 2°40.123 -999 293 12.7 101050 100
2005-10-24 07:38:17 51°14.599 2°40.096 -999 296 12.7 101050 100
2005-10-24 07:38:22 51°14.603 2°40.069 -999 301 12.7 101060 100
2005-10-24 07:38:27 51°14.608 2°40.042 -999 303 12.7 101060 100
2005-10-24 07:38:32 51°14.612 2°40.013 -999 303 12.7 101050 100
2005-10-24 07:38:37 51°14.617 2°39.986 -999 306 12.7 101050 100
2005-10-24 07:38:42 51°14.621 2°39.958 -999 302 12.7 101040 100
2005-10-24 07:38:47 51°14.626 2°39.932 -999 306 12.7 101040 100
2005-10-24 07:38:52 51°14.63 2°39.903 -999 305 12.7 101050 100
2005-10-24 07:38:57 51°14.634 2°39.876 -999 298 12.7 101050 100
2005-10-24 07:39:02 51°14.639 2°39.849 -999 301 12.7 101040 100
2005-10-24 07:39:07 51°14.643 2°39.821 -999 307 12.7 101040 100
2005-10-24 07:39:12 51°14.648 2°39.793 -999 306 12.7 101050 100
2005-10-24 07:39:17 51°14.652 2°39.766 -999 304 12.7 101050 100
2005-10-24 07:39:22 51°14.657 2°39.738 -999 309 12.7 101040 100
2005-10-24 07:39:27 51°14.661 2°39.711 -999 300 12.7 101040 100
2005-10-24 07:39:32 51°14.665 2°39.683 -999 305 12.7 101050 100
2005-10-24 07:39:37 51°14.669 2°39.655 -999 307 12.7 101050 100
2005-10-24 07:39:42 51°14.673 2°39.628 -999 305 12.7 101060 100
2005-10-24 07:39:47 51°14.678 2°39.6 -999 303 12.7 101060 100
2005-10-24 07:39:52 51°14.682 2°39.572 -999 306 12.8 101050 100
2005-10-24 07:39:57 51°14.686 2°39.545 -999 301 12.8 101050 100
2005-10-24 07:40:02 51°14.69 2°39.517 -999 301 12.8 101050 100
2005-10-24 07:40:07 51°14.695 2°39.49 -999 301 12.8 101050 100
2005-10-24 07:40:12 51°14.699 2°39.462 -999 307 12.8 101040 100
2005-10-24 07:40:17 51°14.703 2°39.435 -999 312 12.8 101040 100
2005-10-24 07:40:22 51°14.707 2°39.407 -999 313 12.8 101040 100
2005-10-24 07:40:27 51°14.712 2°39.379 -999 304 12.8 101040 100
2005-10-24 07:40:32 51°14.716 2°39.352 -999 303 12.8 101050 100
2005-10-24 07:40:37 51°14.72 2°39.324 -999 302 12.8 101050 100
2005-10-24 07:40:42 51°14.724 2°39.296 -999 306 12.8 101050 100
2005-10-24 07:40:47 51°14.729 2°39.269 -999 308 12.8 101050 100
2005-10-24 07:40:52 51°14.733 2°39.242 -999 299 12.8 101040 100
2005-10-24 07:40:57 51°14.738 2°39.214 -999 300 12.8 101040 100
2005-10-24 07:41:02 51°14.742 2°39.187 -999 301 12.8 101040 100
2005-10-24 07:41:07 51°14.747 2°39.159 -999 309 12.8 101040 100
2005-10-24 07:41:12 51°14.751 2°39.132 -999 300 12.8 101050 100
2005-10-24 07:41:17 51°14.756 2°39.104 -999 310 12.8 101050 100
2005-10-24 07:41:22 51°14.76 2°39.077 -999 309 12.8 101040 100
2005-10-24 07:41:27 51°14.765 2°39.05 -999 296 12.8 101040 100
2005-10-24 07:41:32 51°14.769 2°39.022 -999 302 12.8 101060 100
2005-10-24 07:41:37 51°14.774 2°38.994 -999 309 12.8 101060 100
2005-10-24 07:41:42 51°14.778 2°38.967 -999 301 12.8 101040 100
2005-10-24 07:41:47 51°14.782 2°38.939 -999 310 12.8 101040 100
2005-10-24 07:41:51 51°14.785 2°38.917 -999 304 12.8 101040 100
2005-10-24 07:41:57 51°14.791 2°38.884 -999 303 12.8 101040 100
2005-10-24 07:42:02 51°14.795 2°38.857 -999 305 12.8 101020 100
2005-10-24 07:42:07 51°14.8 2°38.829 -999 305 12.8 101020 100
2005-10-24 07:42:12 51°14.804 2°38.802 -999 299 12.8 101040 100
2005-10-24 07:42:17 51°14.809 2°38.775 -999 306 12.8 101040 100
2005-10-24 07:42:22 51°14.813 2°38.748 -999 303 12.8 101040 100
2005-10-24 07:42:27 51°14.818 2°38.721 -999 298 12.8 101040 100
2005-10-24 07:42:32 51°14.822 2°38.693 -999 307 12.8 101040 100
2005-10-24 07:42:37 51°14.827 2°38.666 -999 312 12.8 101040 100
2005-10-24 07:42:42 51°14.831 2°38.639 -999 304 12.9 101040 100
2005-10-24 07:42:47 51°14.835 2°38.611 -999 302 12.9 101040 100
2005-10-24 07:42:52 51°14.84 2°38.584 -999 299 12.8 101030 100
2005-10-24 07:42:57 51°14.844 2°38.558 -999 304 12.8 101030 100
2005-10-24 07:43:02 51°14.849 2°38.53 -999 301 12.9 101020 100
2005-10-24 07:43:07 51°14.853 2°38.503 -999 302 12.9 101020 100
2005-10-24 07:43:12 51°14.858 2°38.475 -999 301 12.8 101030 100
2005-10-24 07:43:17 51°14.862 2°38.448 -999 297 12.8 101030 100
2005-10-24 07:43:22 51°14.866 2°38.421 -999 295 12.9 101050 100
2005-10-24 07:43:27 51°14.871 2°38.394 -999 304 12.9 101050 100
2005-10-24 07:43:32 51°14.875 2°38.366 -999 308 12.9 101050 100
2005-10-24 07:43:37 51°14.88 2°38.339 -999 307 12.9 101050 100
2005-10-24 07:43:42 51°14.884 2°38.312 -999 302 12.9 101030 100
2005-10-24 07:43:47 51°14.888 2°38.284 -999 295 12.9 101030 100
2005-10-24 07:43:52 51°14.892 2°38.257 -999 296 12.9 101030 100
2005-10-24 07:43:57 51°14.897 2°38.23 -999 299 12.9 101030 100
2005-10-24 07:44:02 51°14.901 2°38.202 -999 296 13 101040 100
2005-10-24 07:44:07 51°14.905 2°38.174 -999 309 13 101040 100
2005-10-24 07:44:12 51°14.909 2°38.147 -999 304 13 101030 100
2005-10-24 07:44:17 51°14.914 2°38.12 -999 310 13 101030 100
2005-10-24 07:44:22 51°14.918 2°38.093 -999 302 13 101050 100
2005-10-24 07:44:27 51°14.922 2°38.065 -999 309 13 101050 100
2005-10-24 07:44:31 51°14.926 2°38.043 -999 312 13 101040 100
2005-10-24 07:44:37 51°14.931 2°38.01 -999 305 13 101040 100
2005-10-24 07:44:42 51°14.936 2°37.984 -999 305 13 101030 100
2005-10-24 07:44:47 51°14.94 2°37.956 -999 302 13 101030 100
2005-10-24 07:44:52 51°14.945 2°37.929 -999 304 13 101030 100
2005-10-24 07:44:57 51°14.949 2°37.902 -999 309 13 101030 100
2005-10-24 07:45:02 51°14.953 2°37.875 -999 304 13 101050 100
2005-10-24 07:45:07 51°14.957 2°37.848 -999 312 13 101050 100
2005-10-24 07:45:12 51°14.962 2°37.821 -999 304 13.1 101030 100
2005-10-24 07:45:17 51°14.966 2°37.794 -999 304 13.1 101030 100
2005-10-24 07:45:22 51°14.97 2°37.766 -999 304 13.1 101040 100
2005-10-24 07:45:27 51°14.975 2°37.739 -999 302 13.1 101040 100
2005-10-24 07:45:32 51°14.979 2°37.712 -999 303 13.1 101040 100
2005-10-24 07:45:37 51°14.983 2°37.685 -999 308 13.1 101040 100
2005-10-24 07:45:42 51°14.988 2°37.658 -999 312 13.1 101020 100
2005-10-24 07:45:47 51°14.992 2°37.631 -999 305 13.1 101020 100
2005-10-24 07:45:52 51°14.996 2°37.603 -999 302 13.1 101040 100
2005-10-24 07:45:57 51°15.001 2°37.576 -999 311 13.1 101040 100
2005-10-24 07:46:02 51°15.005 2°37.549 -999 309 13.1 101030 100
2005-10-24 07:46:07 51°15.01 2°37.522 -999 307 13.1 101030 100
2005-10-24 07:46:11 51°15.013 2°37.5 -999 307 13.1 101030 100
2005-10-24 07:46:17 51°15.018 2°37.468 -999 305 13.1 101030 100
2005-10-24 07:46:22 51°15.023 2°37.441 -999 306 13.1 101020 100
2005-10-24 07:46:27 51°15.028 2°37.413 -999 299 13.1 101020 100
2005-10-24 07:46:32 51°15.032 2°37.386 -999 305 13.1 101020 100
2005-10-24 07:46:37 51°15.036 2°37.359 -999 298 13.1 101020 100
2005-10-24 07:46:42 51°15.04 2°37.332 -999 307 13.1 101030 100
2005-10-24 07:46:47 51°15.045 2°37.305 -999 301 13.1 101030 100
2005-10-24 07:46:52 51°15.049 2°37.277 -999 301 13 101020 100
2005-10-24 07:46:57 51°15.054 2°37.249 -999 307 13 101020 100
2005-10-24 07:47:02 51°15.058 2°37.223 -999 307 13.1 101040 100
2005-10-24 07:47:07 51°15.063 2°37.195 -999 304 13.1 101040 100
2005-10-24 07:47:12 51°15.068 2°37.168 -999 306 13.1 101030 100
2005-10-24 07:47:17 51°15.072 2°37.141 -999 305 13.1 101030 100
2005-10-24 07:47:22 51°15.077 2°37.114 -999 309 13.1 101030 100
2005-10-24 07:47:27 51°15.081 2°37.086 -999 308 13.1 101030 100
2005-10-24 07:47:32 51°15.086 2°37.059 -999 300 13.1 101020 100
2005-10-24 07:47:37 51°15.09 2°37.032 -999 299 13.1 101020 100
2005-10-24 07:47:42 51°15.095 2°37.004 -999 302 13.1 101040 100
2005-10-24 07:47:47 51°15.099 2°36.977 -999 301 13.1 101040 100
2005-10-24 07:47:52 51°15.103 2°36.95 -999 297 13.1 101000 100
2005-10-24 07:47:57 51°15.108 2°36.922 -999 305 13.1 101000 100
2005-10-24 07:48:02 51°15.112 2°36.895 -999 314 13 101030 100
2005-10-24 07:48:07 51°15.116 2°36.867 -999 307 13 101030 100
2005-10-24 07:48:11 51°15.12 2°36.846 -999 306 13 101040 100
2005-10-24 07:48:17 51°15.125 2°36.812 -999 306 13 101040 100
2005-10-24 07:48:22 51°15.13 2°36.785 -999 313 13 101040 100
2005-10-24 07:48:27 51°15.134 2°36.758 -999 309 13 101040 100
2005-10-24 07:48:32 51°15.139 2°36.73 -999 299 13.1 101040 100
2005-10-24 07:48:37 51°15.143 2°36.703 -999 300 13.1 101040 100
2005-10-24 07:48:42 51°15.148 2°36.676 -999 311 13.1 101050 100
2005-10-24 07:48:47 51°15.152 2°36.648 -999 297 13.1 101050 100
2005-10-24 07:48:52 51°15.157 2°36.621 -999 309 13.1 101030 100
2005-10-24 07:48:57 51°15.161 2°36.594 -999 300 13.1 101030 100
2005-10-24 07:49:02 51°15.166 2°36.567 -999 304 13.1 101020 100
2005-10-24 07:49:07 51°15.171 2°36.539 -999 306 13.1 101020 100
2005-10-24 07:49:12 51°15.175 2°36.512 -999 307 13.1 101050 100
2005-10-24 07:49:17 51°15.179 2°36.485 -999 308 13.1 101050 100
2005-10-24 07:49:22 51°15.184 2°36.457 -999 306 13.1 101020 100
2005-10-24 07:49:27 51°15.188 2°36.43 -999 308 13.1 101020 100
2005-10-24 07:49:32 51°15.193 2°36.403 -999 308 13.1 101020 100
2005-10-24 07:49:37 51°15.198 2°36.375 -999 304 13.1 101020 100
2005-10-24 07:49:42 51°15.202 2°36.348 -999 303 13.1 101030 100
2005-10-24 07:49:47 51°15.207 2°36.321 -999 309 13.1 101030 100
2005-10-24 07:49:52 51°15.213 2°36.294 -999 299 13.1 101040 100
2005-10-24 07:49:57 51°15.219 2°36.267 -999 301 13.1 101040 100
2005-10-24 07:50:02 51°15.225 2°36.24 -999 310 13.1 101030 100
2005-10-24 07:50:07 51°15.23 2°36.213 -999 308 13.1 101030 100
2005-10-24 07:50:11 51°15.235 2°36.192 -999 304 13.1 101020 100
2005-10-24 07:50:17 51°15.243 2°36.159 -999 298 13.1 101020 100
2005-10-24 07:50:22 51°15.249 2°36.133 -999 297 13.1 101010 100
2005-10-24 07:50:27 51°15.255 2°36.107 -999 300 13.1 101010 100
2005-10-24 07:50:32 51°15.262 2°36.081 -999 303 13.1 101050 100
2005-10-24 07:50:37 51°15.269 2°36.054 -999 294 13.1 101050 100
2005-10-24 07:50:42 51°15.276 2°36.029 -999 292 13.1 101030 100
2005-10-24 07:50:47 51°15.284 2°36.003 -999 293 13.1 101030 100
2005-10-24 07:50:52 51°15.291 2°35.977 -999 302 13.1 101050 100
2005-10-24 07:50:57 51°15.299 2°35.951 -999 293 13.1 101050 100
2005-10-24 07:51:02 51°15.306 2°35.925 -999 296 13.1 101030 100
2005-10-24 07:51:07 51°15.314 2°35.899 -999 295 13.1 101030 100
2005-10-24 07:51:12 51°15.321 2°35.873 -999 293 13.1 101030 100
2005-10-24 07:51:17 51°15.329 2°35.847 -999 299 13.1 101030 100
2005-10-24 07:51:22 51°15.336 2°35.821 -999 296 13.1 101050 100
2005-10-24 07:51:27 51°15.344 2°35.795 -999 301 13.1 101050 100
2005-10-24 07:51:32 51°15.351 2°35.769 -999 303 13.1 101050 100
2005-10-24 07:51:37 51°15.359 2°35.743 -999 299 13.1 101050 100
2005-10-24 07:51:42 51°15.366 2°35.717 -999 300 13.1 101030 100
2005-10-24 07:51:47 51°15.373 2°35.691 -999 298 13.1 101030 100
2005-10-24 07:51:52 51°15.381 2°35.665 -999 297 13.1 101040 100
2005-10-24 07:51:57 51°15.389 2°35.64 -999 284 13.1 101040 100
2005-10-24 07:52:02 51°15.397 2°35.614 -999 288 13.1 101030 100
2005-10-24 07:52:07 51°15.406 2°35.589 -999 300 13.1 101030 100
2005-10-24 07:52:12 51°15.415 2°35.564 -999 288 13.1 101030 100
2005-10-24 07:52:17 51°15.424 2°35.539 -999 301 13.1 101030 100
2005-10-24 07:52:22 51°15.433 2°35.514 -999 298 13.1 101030 100
2005-10-24 07:52:27 51°15.442 2°35.49 -999 292 13.1 101030 100
2005-10-24 07:52:32 51°15.451 2°35.465 -999 297 13.1 101060 100
2005-10-24 07:52:37 51°15.46 2°35.441 -999 295 13.1 101060 100
2005-10-24 07:52:42 51°15.469 2°35.416 -999 296 13.1 101040 100
2005-10-24 07:52:47 51°15.477 2°35.391 -999 297 13.1 101040 100
2005-10-24 07:52:52 51°15.486 2°35.366 -999 298 13.1 101050 100
2005-10-24 07:52:57 51°15.495 2°35.341 -999 292 13.1 101050 100
2005-10-24 07:53:02 51°15.504 2°35.316 -999 298 13.1 101040 100
2005-10-24 07:53:07 51°15.512 2°35.291 -999 296 13.1 101040 100
2005-10-24 07:53:12 51°15.522 2°35.267 -999 285 13.1 101030 100
2005-10-24 07:53:17 51°15.53 2°35.242 -999 285 13.1 101030 100
2005-10-24 07:53:22 51°15.539 2°35.217 -999 293 13.1 101050 100
2005-10-24 07:53:27 51°15.548 2°35.192 -999 298 13.1 101050 100
2005-10-24 07:53:32 51°15.557 2°35.167 -999 286 13.1 101040 100
2005-10-24 07:53:37 51°15.565 2°35.142 -999 300 13.1 101040 100
2005-10-24 07:53:42 51°15.574 2°35.117 -999 303 13.1 101050 100
2005-10-24 07:53:47 51°15.583 2°35.092 -999 298 13.1 101050 100
2005-10-24 07:53:51 51°15.59 2°35.072 -999 298 13.1 101040 100
2005-10-24 07:53:57 51°15.6 2°35.042 -999 299 13.1 101040 100
2005-10-24 07:54:02 51°15.609 2°35.017 -999 293 13.2 101050 100
2005-10-24 07:54:07 51°15.617 2°34.992 -999 298 13.2 101050 100
2005-10-24 07:54:12 51°15.626 2°34.967 -999 296 13.2 101050 100
2005-10-24 07:54:17 51°15.634 2°34.941 -999 293 13.2 101050 100
2005-10-24 07:54:22 51°15.643 2°34.917 -999 294 13.2 101040 100
2005-10-24 07:54:27 51°15.651 2°34.892 -999 296 13.2 101040 100
2005-10-24 07:54:32 51°15.66 2°34.867 -999 294 13.2 101060 100
2005-10-24 07:54:37 51°15.669 2°34.842 -999 295 13.2 101060 100
2005-10-24 07:54:42 51°15.678 2°34.816 -999 291 13.2 101040 100
2005-10-24 07:54:47 51°15.686 2°34.792 -999 294 13.2 101040 100
2005-10-24 07:54:52 51°15.695 2°34.766 -999 292 13.2 101050 100
2005-10-24 07:54:57 51°15.703 2°34.741 -999 299 13.2 101050 100
2005-10-24 07:55:02 51°15.711 2°34.716 -999 297 13.2 101040 100
2005-10-24 07:55:07 51°15.72 2°34.691 -999 291 13.2 101040 100
2005-10-24 07:55:12 51°15.729 2°34.665 -999 296 13.2 101050 100
2005-10-24 07:55:17 51°15.738 2°34.64 -999 295 13.2 101050 100
2005-10-24 07:55:22 51°15.746 2°34.615 -999 293 13.2 101040 100
2005-10-24 07:55:27 51°15.755 2°34.59 -999 296 13.2 101040 100
2005-10-24 07:55:31 51°15.761 2°34.57 -999 294 13.2 101050 100
2005-10-24 07:55:37 51°15.771 2°34.539 -999 293 13.2 101050 100
2005-10-24 07:55:42 51°15.78 2°34.514 -999 294 13.2 101030 100
2005-10-24 07:55:47 51°15.787 2°34.489 -999 296 13.2 101030 100
2005-10-24 07:55:52 51°15.796 2°34.464 -999 295 13.2 101050 100
2005-10-24 07:55:57 51°15.804 2°34.438 -999 291 13.2 101050 100
2005-10-24 07:56:02 51°15.813 2°34.413 -999 291 13.2 101040 100
2005-10-24 07:56:07 51°15.822 2°34.389 -999 285 13.2 101040 100
2005-10-24 07:56:12 51°15.831 2°34.364 -999 288 13.2 101040 100
2005-10-24 07:56:17 51°15.84 2°34.339 -999 298 13.2 101040 100
2005-10-24 07:56:22 51°15.85 2°34.315 -999 295 13.2 101030 100
2005-10-24 07:56:27 51°15.859 2°34.29 -999 284 13.2 101030 100
2005-10-24 07:56:32 51°15.868 2°34.266 -999 304 13.2 101050 100
2005-10-24 07:56:37 51°15.877 2°34.241 -999 291 13.2 101050 100
2005-10-24 07:56:42 51°15.886 2°34.216 -999 294 13.2 101040 100
2005-10-24 07:56:47 51°15.895 2°34.192 -999 295 13.2 101040 100
2005-10-24 07:56:52 51°15.906 2°34.168 -999 285 13.2 101040 100
2005-10-24 07:56:57 51°15.916 2°34.145 -999 287 13.2 101040 100
2005-10-24 07:57:02 51°15.926 2°34.121 -999 286 13.2 101040 100
2005-10-24 07:57:07 51°15.937 2°34.098 -999 294 13.2 101040 100
2005-10-24 07:57:11 51°15.945 2°34.079 -999 295 13.2 101050 100
2005-10-24 07:57:17 51°15.958 2°34.052 -999 291 13.2 101050 100
2005-10-24 07:57:22 51°15.969 2°34.028 -999 286 13.2 101050 100
2005-10-24 07:57:27 51°15.979 2°34.006 -999 285 13.2 101050 100
2005-10-24 07:57:31 51°15.987 2°33.987 -999 284 13.2 101060 100
2005-10-24 07:57:37 51°16.001 2°33.959 -999 285 13.2 101060 100
2005-10-24 07:57:42 51°16.011 2°33.935 -999 285 13.3 101060 100
2005-10-24 07:57:47 51°16.023 2°33.914 -999 289 13.3 101060 100
2005-10-24 07:57:52 51°16.032 2°33.89 -999 293 13.3 101050 100
2005-10-24 07:57:57 51°16.044 2°33.868 -999 287 13.3 101050 100
2005-10-24 07:58:02 51°16.053 2°33.844 -999 284 13.3 101050 100
2005-10-24 07:58:07 51°16.065 2°33.822 -999 279 13.3 101050 100
2005-10-24 07:58:12 51°16.075 2°33.799 -999 285 13.3 101060 100
2005-10-24 07:58:17 51°16.087 2°33.777 -999 287 13.3 101060 100
2005-10-24 07:58:22 51°16.097 2°33.753 -999 289 13.3 101060 100
2005-10-24 07:58:27 51°16.109 2°33.731 -999 288 13.3 101050 100
2005-10-24 07:58:32 51°16.12 2°33.709 -999 286 13.3 101050 100
2005-10-24 07:58:37 51°16.131 2°33.687 -999 284 13.3 101050 100
2005-10-24 07:58:42 51°16.143 2°33.665 -999 280 13.3 101050 100
2005-10-24 07:58:47 51°16.154 2°33.642 -999 280 13.3 101050 100
2005-10-24 07:58:52 51°16.166 2°33.621 -999 275 13.3 101070 100
2005-10-24 07:58:57 51°16.176 2°33.598 -999 287 13.3 101070 100
2005-10-24 07:59:02 51°16.189 2°33.576 -999 279 13.3 101050 100
2005-10-24 07:59:07 51°16.2 2°33.553 -999 289 13.3 101050 100
2005-10-24 07:59:12 51°16.212 2°33.531 -999 289 13.3 101050 100
2005-10-24 07:59:17 51°16.222 2°33.508 -999 290 13.3 101050 100
2005-10-24 07:59:22 51°16.234 2°33.486 -999 287 13.3 101050 100
2005-10-24 07:59:27 51°16.245 2°33.463 -999 295 13.3 101050 100
2005-10-24 07:59:32 51°16.256 2°33.439 -999 289 13.4 101040 100
2005-10-24 07:59:37 51°16.268 2°33.416 -999 288 13.4 101040 100
2005-10-24 07:59:42 51°16.279 2°33.394 -999 286 13.4 101050 100
2005-10-24 07:59:47 51°16.29 2°33.372 -999 282 13.4 101050 100
2005-10-24 07:59:52 51°16.302 2°33.349 -999 282 13.4 101050 100
2005-10-24 07:59:57 51°16.315 2°33.329 -999 293 13.4 101050 100
2005-10-24 08:00:02 51°16.327 2°33.307 -999 283 13.4 101050 100
2005-10-24 08:00:07 51°16.34 2°33.286 -999 281 13.4 101050 100
2005-10-24 08:00:12 51°16.353 2°33.264 -999 277 13.4 101040 100
2005-10-24 08:00:17 51°16.366 2°33.243 -999 274 13.4 101040 100
2005-10-24 08:00:22 51°16.379 2°33.221 -999 277 13.4 101030 100
2005-10-24 08:00:27 51°16.391 2°33.2 -999 277 13.4 101040 100
2005-10-24 08:00:32 51°16.404 2°33.179 -999 284 13.4 101040 100
2005-10-24 08:00:37 51°16.416 2°33.157 -999 280 13.4 101040 100
2005-10-24 08:00:42 51°16.43 2°33.137 -999 269 13.4 101040 100
2005-10-24 08:00:47 51°16.442 2°33.116 -999 274 13.4 101040 100
2005-10-24 08:00:52 51°16.456 2°33.096 -999 282 13.4 101040 100
2005-10-24 08:00:57 51°16.468 2°33.074 -999 279 13.4 101040 100
2005-10-24 08:01:02 51°16.481 2°33.054 -999 280 13.4 101030 100
2005-10-24 08:01:07 51°16.493 2°33.033 -999 273 13.4 101050 100
2005-10-24 08:01:12 51°16.506 2°33.014 -999 285 13.4 101050 100
2005-10-24 08:01:17 51°16.519 2°32.993 -999 276 13.4 101050 100
2005-10-24 08:01:22 51°16.533 2°32.973 -999 277 13.4 101040 100
2005-10-24 08:01:27 51°16.545 2°32.951 -999 281 13.4 101040 100
2005-10-24 08:01:32 51°16.558 2°32.932 -999 285 13.4 101050 100
2005-10-24 08:01:37 51°16.571 2°32.912 -999 278 13.4 101050 100
2005-10-24 08:01:42 51°16.583 2°32.89 -999 284 13.4 101050 100
2005-10-24 08:01:47 51°16.596 2°32.871 -999 285 13.5 101050 100
2005-10-24 08:01:52 51°16.608 2°32.85 -999 284 13.5 101050 100
2005-10-24 08:01:57 51°16.622 2°32.831 -999 290 13.5 101050 100
2005-10-24 08:02:02 51°16.634 2°32.811 -999 279 13.5 101050 100
2005-10-24 08:02:07 51°16.648 2°32.79 -999 291 13.5 101060 100
2005-10-24 08:02:12 51°16.66 2°32.769 -999 287 13.5 101060 100
2005-10-24 08:02:17 51°16.673 2°32.748 -999 275 13.5 101060 100
2005-10-24 08:02:22 51°16.685 2°32.728 -999 276 13.5 101060 100
2005-10-24 08:02:27 51°16.698 2°32.708 -999 278 13.5 101050 100
2005-10-24 08:02:32 51°16.711 2°32.688 -999 278 13.5 101050 100
2005-10-24 08:02:37 51°16.724 2°32.668 -999 280 13.5 101050 100
2005-10-24 08:02:42 51°16.737 2°32.648 -999 281 13.5 101050 100
2005-10-24 08:02:47 51°16.751 2°32.629 -999 274 13.5 101050 100
2005-10-24 08:02:52 51°16.763 2°32.608 -999 282 13.5 101040 100
2005-10-24 08:02:57 51°16.777 2°32.588 -999 279 13.5 101040 100
2005-10-24 08:03:02 51°16.789 2°32.568 -999 275 13.5 101040 100
2005-10-24 08:03:07 51°16.802 2°32.547 -999 281 13.5 101050 100
2005-10-24 08:03:13 51°16.818 2°32.523 -999 279 13.5 101050 100
2005-10-24 08:03:17 51°16.828 2°32.507 -999 269 13.5 101060 100
2005-10-24 08:03:22 51°16.841 2°32.486 -999 279 13.5 101060 100
2005-10-24 08:03:27 51°16.854 2°32.466 -999 279 13.5 101060 100
2005-10-24 08:03:32 51°16.866 2°32.445 -999 274 13.5 101040 100
2005-10-24 08:03:37 51°16.879 2°32.426 -999 271 13.5 101040 100
2005-10-24 08:03:42 51°16.892 2°32.405 -999 276 13.5 101050 100
2005-10-24 08:03:47 51°16.905 2°32.386 -999 278 13.5 101050 100
2005-10-24 08:03:52 51°16.917 2°32.365 -999 274 13.5 101050 100
2005-10-24 08:03:57 51°16.931 2°32.346 -999 274 13.5 101050 100
2005-10-24 08:04:02 51°16.944 2°32.325 -999 279 13.5 101050 100
2005-10-24 08:04:07 51°16.956 2°32.305 -999 278 13.5 101050 100
2005-10-24 08:04:11 51°16.966 2°32.289 -999 282 13.5 101040 100
2005-10-24 08:04:17 51°16.981 2°32.264 -999 282 13.5 101040 100
2005-10-24 08:04:22 51°16.994 2°32.245 -999 279 13.5 101050 100
2005-10-24 08:04:27 51°17.007 2°32.224 -999 282 13.5 101040 100
2005-10-24 08:04:31 51°17.018 2°32.208 -999 274 13.5 101040 100
2005-10-24 08:04:37 51°17.033 2°32.183 -999 285 13.5 101040 100
2005-10-24 08:04:42 51°17.046 2°32.162 -999 285 13.5 101050 100
2005-10-24 08:04:47 51°17.058 2°32.142 -999 282 13.5 101050 100
2005-10-24 08:04:51 51°17.068 2°32.125 -999 285 13.5 101050 100
2005-10-24 08:04:57 51°17.084 2°32.1 -999 274 13.5 101050 100
2005-10-24 08:05:02 51°17.096 2°32.079 -999 291 13.5 101040 100
2005-10-24 08:05:07 51°17.109 2°32.059 -999 280 13.5 101040 100
2005-10-24 08:05:12 51°17.122 2°32.038 -999 277 13.5 101030 100
2005-10-24 08:05:17 51°17.135 2°32.018 -999 279 13.5 101030 100
2005-10-24 08:05:22 51°17.148 2°31.998 -999 281 13.5 101050 100